2022/11/28 23:32:31+0000,-34.88,-43.49,-34.05,-37.66,-51.77,-52.34
2022/11/28 23:33:24+0000,-35.45,-44.37,-33.78,-38.14,-51.34,-52.30
2022/11/28 23:34:16+0000,-34.39,-42.28,-33.71,-38.16,-51.55,-52.65
2022/11/28 23:35:08+0000,-34.56,-43.41,-33.33,-37.92,-51.48,-52.79
2022/11/28 23:36:00+0000,-34.34,-43.08,-33.65,-37.92,-51.33,-52.82
2022/11/28 23:36:52+0000,-34.95,-43.28,-32.59,-37.93,-51.34,-53.62
2022/11/28 23:37:44+0000,-34.68,-43.11,-33.07,-37.96,-50.48,-52.88
2022/11/28 23:38:36+0000,-34.80,-42.95,-33.76,-38.55,-50.54,-53.12
2022/11/28 23:39:28+0000,-34.54,-42.84,-33.78,-37.59,-50.99,-52.98
2022/11/28 23:40:20+0000,-34.45,-42.46,-33.57,-38.26,-50.94,-52.34
2022/11/28 23:41:19+0000,-35.17,-42.02,-33.51,-38.18,-50.75,-53.29
2022/11/28 23:42:11+0000,-35.02,-42.19,-33.97,-38.14,-50.81,-53.56
2022/11/28 23:43:03+0000,-34.23,-43.55,-33.32,-37.74,-50.13,-53.46
2022/11/28 23:43:55+0000,-34.64,-42.91,-33.75,-37.51,-50.47,-53.51
2022/11/28 23:44:47+0000,-34.87,-41.29,-34.11,-37.80,-50.06,-52.64
2022/11/28 23:45:39+0000,-34.21,-43.09,-33.34,-38.16,-49.78,-51.82
2022/11/28 23:46:31+0000,-34.58,-42.26,-33.78,-37.99,-49.57,-52.47
2022/11/28 23:47:24+0000,-35.28,-42.32,-33.70,-38.12,-50.76,-51.76
2022/11/28 23:48:16+0000,-34.41,-43.04,-33.74,-38.49,-50.32,-50.26
2022/11/28 23:49:08+0000,-34.37,-42.59,-33.81,-37.81,-50.40,-52.21
2022/11/28 23:50:00+0000,-35.08,-43.84,-33.84,-38.69,-50.06,-51.18
2022/11/28 23:50:59+0000,-34.48,-43.31,-34.35,-37.26,-50.06,-51.12
2022/11/28 23:51:51+0000,-35.09,-42.28,-33.93,-38.00,-50.85,-51.23
2022/11/28 23:52:43+0000,-35.59,-42.53,-33.61,-37.54,-50.74,-51.54
2022/11/28 23:53:35+0000,-34.55,-43.29,-33.78,-37.75,-50.13,-51.75
2022/11/28 23:54:27+0000,-35.24,-43.39,-34.06,-38.13,-51.48,-51.60
2022/11/28 23:55:19+0000,-34.44,-42.01,-34.11,-38.00,-51.41,-51.83
2022/11/28 23:56:11+0000,-34.39,-42.64,-33.49,-38.06,-51.34,-50.84
2022/11/28 23:57:03+0000,-34.07,-42.67,-33.93,-38.85,-50.55,-51.76
2022/11/28 23:57:55+0000,-34.25,-42.82,-34.10,-38.46,-50.65,-52.18
2022/11/28 23:58:47+0000,-34.41,-41.71,-33.41,-37.91,-51.25,-52.00
2022/11/28 23:59:40+0000,-33.66,-42.02,-34.10,-38.46,-50.38,-52.30
2022/11/29 00:00:32+0000,-34.93,-43.21,-34.34,-38.71,-50.78,-52.13
2022/11/29 00:01:35+0000,-35.68,-43.19,-34.14,-37.63,-50.81,-52.79
2022/11/29 00:02:27+0000,-34.58,-43.50,-33.61,-38.48,-50.89,-52.55
2022/11/29 00:03:19+0000,-34.76,-42.73,-33.64,-38.89,-50.73,-52.04
2022/11/29 00:04:11+0000,-35.07,-42.48,-33.86,-36.97,-51.08,-52.47
2022/11/29 00:05:03+0000,-34.54,-42.77,-33.59,-38.03,-50.51,-51.54
2022/11/29 00:05:55+0000,-35.22,-43.74,-33.53,-38.44,-50.85,-52.20
2022/11/29 00:06:47+0000,-34.79,-42.95,-33.26,-37.99,-51.29,-52.42
2022/11/29 00:07:39+0000,-34.72,-42.49,-34.06,-37.71,-50.52,-52.30
2022/11/29 00:08:31+0000,-35.00,-43.27,-33.44,-38.06,-51.13,-52.65
2022/11/29 00:09:23+0000,-34.90,-43.59,-33.59,-37.69,-51.29,-52.69
2022/11/29 00:10:16+0000,-35.07,-42.65,-34.00,-37.71,-51.90,-52.11
2022/11/29 00:11:15+0000,-34.79,-43.39,-34.18,-37.68,-50.98,-52.35
2022/11/29 00:12:07+0000,-34.24,-43.14,-33.93,-38.79,-51.73,-51.58
2022/11/29 00:12:59+0000,-34.86,-42.17,-33.58,-38.22,-50.98,-52.59
2022/11/29 00:13:51+0000,-34.15,-42.01,-34.33,-38.11,-51.28,-51.42
2022/11/29 00:14:43+0000,-34.46,-43.23,-33.68,-38.88,-51.14,-52.96
2022/11/29 00:15:35+0000,-34.79,-43.68,-33.69,-38.75,-51.32,-52.66
2022/11/29 00:16:27+0000,-34.27,-43.27,-33.73,-37.60,-50.90,-52.00
2022/11/29 00:17:19+0000,-34.61,-43.07,-33.96,-38.64,-50.98,-52.20
2022/11/29 00:18:11+0000,-34.55,-43.04,-33.90,-37.98,-50.88,-52.35
2022/11/29 00:19:03+0000,-34.18,-43.22,-33.46,-38.08,-50.99,-52.06
2022/11/29 00:19:56+0000,-34.71,-43.65,-34.02,-37.32,-51.46,-52.12
2022/11/29 00:20:48+0000,-34.45,-42.80,-33.65,-38.35,-51.10,-52.14
2022/11/29 00:21:46+0000,-35.07,-42.95,-33.67,-37.89,-51.03,-51.87
2022/11/29 00:22:38+0000,-34.53,-43.19,-33.79,-37.88,-50.70,-52.53
2022/11/29 00:23:31+0000,-35.17,-43.57,-33.32,-38.34,-49.71,-51.37
2022/11/29 00:24:23+0000,-34.05,-42.83,-33.77,-37.50,-50.72,-51.51
2022/11/29 00:25:15+0000,-35.35,-43.37,-34.13,-37.45,-50.30,-51.87
2022/11/29 00:26:07+0000,-34.97,-43.78,-33.76,-38.26,-51.00,-51.40
2022/11/29 00:26:59+0000,-35.14,-42.14,-33.52,-38.72,-51.60,-52.94
2022/11/29 00:27:51+0000,-34.75,-43.41,-33.70,-38.36,-52.10,-52.00
2022/11/29 00:28:43+0000,-35.00,-43.48,-33.86,-37.93,-51.91,-52.62
2022/11/29 00:29:35+0000,-34.52,-43.01,-33.70,-38.55,-51.27,-52.73
2022/11/29 00:30:27+0000,-34.80,-43.34,-33.88,-37.24,-51.96,-52.90
2022/11/29 00:31:26+0000,-34.09,-43.36,-33.52,-37.57,-52.09,-52.86
2022/11/29 00:32:18+0000,-34.38,-42.78,-33.16,-38.91,-50.89,-52.62
2022/11/29 00:33:10+0000,-34.44,-42.14,-33.64,-38.15,-51.56,-52.38
2022/11/29 00:34:02+0000,-33.91,-42.58,-33.83,-37.55,-50.94,-52.54
2022/11/29 00:34:54+0000,-34.90,-41.98,-33.32,-38.06,-50.65,-52.21
2022/11/29 00:35:46+0000,-33.41,-41.93,-33.30,-37.77,-51.29,-53.37
2022/11/29 00:36:38+0000,-34.35,-42.69,-34.30,-37.77,-52.28,-52.97
2022/11/29 00:37:30+0000,-33.88,-43.14,-33.80,-37.01,-52.12,-53.13
2022/11/29 00:38:22+0000,-33.06,-43.28,-33.19,-37.54,-52.43,-53.26
2022/11/29 00:39:15+0000,-34.19,-42.91,-33.75,-38.80,-51.66,-53.37
2022/11/29 00:40:07+0000,-33.57,-43.67,-34.31,-37.79,-51.84,-53.86
2022/11/29 00:41:06+0000,-33.33,-43.85,-33.97,-38.21,-51.87,-51.95
2022/11/29 00:41:58+0000,-34.03,-43.63,-33.96,-39.82,-51.71,-53.31
2022/11/29 00:42:50+0000,-34.38,-43.81,-34.24,-38.47,-51.54,-52.98
2022/11/29 00:43:42+0000,-34.12,-43.81,-34.72,-38.63,-50.58,-52.86
2022/11/29 00:44:34+0000,-33.84,-43.90,-33.94,-38.90,-50.14,-52.45
2022/11/29 00:45:26+0000,-34.48,-43.56,-33.91,-38.71,-50.74,-52.81
2022/11/29 00:46:18+0000,-34.72,-43.34,-34.12,-39.62,-50.55,-52.40
2022/11/29 00:47:10+0000,-34.57,-42.78,-33.69,-38.84,-50.65,-53.11
2022/11/29 00:48:02+0000,-34.51,-43.15,-33.78,-38.38,-49.71,-52.71
2022/11/29 00:48:54+0000,-33.68,-43.37,-33.78,-38.32,-49.80,-52.98
2022/11/29 00:49:47+0000,-34.90,-42.88,-34.08,-39.18,-50.20,-52.42
2022/11/29 00:50:39+0000,-34.47,-43.66,-33.91,-38.38,-49.88,-52.56
2022/11/29 00:51:37+0000,-33.33,-44.15,-34.41,-39.62,-49.77,-52.97
2022/11/29 00:52:29+0000,-34.34,-43.72,-34.07,-38.84,-50.59,-52.85
2022/11/29 00:53:21+0000,-34.70,-42.96,-33.74,-38.53,-50.04,-52.82
2022/11/29 00:54:13+0000,-34.00,-42.80,-33.69,-38.70,-49.21,-52.01
2022/11/29 00:55:05+0000,-35.00,-43.69,-33.77,-39.09,-50.38,-52.85
2022/11/29 00:55:57+0000,-34.64,-42.74,-34.03,-38.61,-49.91,-53.09
2022/11/29 00:56:49+0000,-33.83,-42.99,-33.97,-38.94,-49.13,-52.83
2022/11/29 00:57:41+0000,-34.02,-43.11,-33.94,-38.28,-49.07,-53.08
2022/11/29 00:58:33+0000,-34.03,-43.18,-33.97,-39.38,-49.64,-52.71
2022/11/29 00:59:25+0000,-34.18,-42.57,-33.83,-38.62,-50.03,-53.30
2022/11/29 01:00:17+0000,-34.46,-44.20,-34.00,-39.26,-50.06,-53.36
2022/11/29 01:01:25+0000,-34.70,-45.22,-34.23,-38.60,-49.72,-52.54
2022/11/29 01:02:17+0000,-34.21,-44.21,-34.32,-39.50,-49.84,-53.06
2022/11/29 01:03:09+0000,-34.80,-43.66,-33.70,-38.98,-49.50,-53.40
2022/11/29 01:04:01+0000,-33.94,-45.40,-34.14,-38.07,-50.19,-52.74
2022/11/29 01:04:53+0000,-34.67,-44.90,-33.73,-38.95,-49.86,-52.77
2022/11/29 01:05:45+0000,-34.69,-44.34,-34.14,-38.99,-49.89,-52.22
2022/11/29 01:06:37+0000,-34.49,-45.01,-34.09,-38.84,-50.11,-53.11
2022/11/29 01:07:29+0000,-35.22,-44.88,-34.34,-39.31,-49.70,-53.03
2022/11/29 01:08:21+0000,-34.38,-45.24,-33.79,-39.20,-50.09,-52.75
2022/11/29 01:09:13+0000,-32.28,-44.76,-34.26,-39.09,-49.57,-52.80
2022/11/29 01:10:05+0000,-33.67,-45.37,-34.52,-39.59,-49.48,-53.05
2022/11/29 01:11:04+0000,-34.02,-45.02,-33.86,-39.09,-49.53,-53.49
2022/11/29 01:11:56+0000,-34.62,-45.19,-33.71,-39.26,-49.21,-52.67
2022/11/29 01:12:48+0000,-33.98,-43.54,-34.03,-40.37,-49.93,-54.11
2022/11/29 01:13:40+0000,-34.45,-45.54,-34.28,-39.07,-48.42,-53.19
2022/11/29 01:14:32+0000,-34.29,-44.82,-33.66,-40.27,-48.92,-53.18
2022/11/29 01:15:24+0000,-33.64,-44.16,-34.47,-40.68,-49.45,-52.95
2022/11/29 01:16:16+0000,-34.07,-45.54,-34.10,-40.50,-49.90,-52.97
2022/11/29 01:17:08+0000,-34.61,-45.68,-34.55,-40.29,-50.36,-53.13
2022/11/29 01:18:00+0000,-34.32,-43.75,-34.30,-39.99,-50.77,-53.35
2022/11/29 01:18:52+0000,-34.10,-43.52,-34.45,-40.07,-50.58,-53.20
2022/11/29 01:19:45+0000,-34.19,-44.66,-34.53,-40.56,-49.45,-53.16
2022/11/29 01:20:37+0000,-34.39,-45.71,-33.66,-41.09,-49.00,-53.25
2022/11/29 01:21:48+0000,-34.84,-45.23,-33.70,-40.32,-48.98,-53.76
2022/11/29 01:22:40+0000,-34.50,-45.65,-34.37,-41.39,-49.32,-53.49
2022/11/29 01:23:32+0000,-34.41,-43.56,-34.51,-39.61,-49.75,-53.14
2022/11/29 01:24:24+0000,-34.11,-46.33,-33.97,-41.28,-49.09,-53.79
2022/11/29 01:25:16+0000,-34.73,-46.65,-33.60,-40.94,-48.99,-53.33
2022/11/29 01:26:08+0000,-34.31,-45.55,-33.63,-40.77,-49.19,-53.23
2022/11/29 01:27:00+0000,-35.53,-44.57,-33.53,-40.33,-50.54,-53.89
2022/11/29 01:27:52+0000,-34.66,-46.68,-33.83,-40.00,-49.78,-53.69
2022/11/29 01:28:44+0000,-34.96,-44.74,-33.65,-40.63,-50.64,-53.52
2022/11/29 01:29:36+0000,-34.36,-45.52,-33.94,-41.00,-50.59,-53.40
2022/11/29 01:30:28+0000,-35.05,-45.86,-34.04,-40.24,-50.46,-52.97
2022/11/29 01:31:27+0000,-34.05,-45.33,-33.97,-41.13,-49.54,-53.80
2022/11/29 01:32:20+0000,-34.81,-40.72,-33.96,-40.49,-50.06,-53.34
2022/11/29 01:33:12+0000,-34.70,-43.09,-34.00,-40.12,-50.10,-53.24
2022/11/29 01:34:04+0000,-34.97,-42.31,-33.61,-40.63,-49.82,-53.24
2022/11/29 01:34:56+0000,-34.99,-43.03,-34.01,-39.82,-50.06,-52.67
2022/11/29 01:35:48+0000,-34.09,-45.32,-33.82,-40.94,-49.47,-52.31
2022/11/29 01:36:40+0000,-35.07,-43.82,-33.68,-40.32,-49.90,-52.59
2022/11/29 01:37:32+0000,-33.23,-42.98,-33.40,-40.56,-49.62,-52.69
2022/11/29 01:38:24+0000,-34.78,-43.08,-33.55,-40.25,-50.52,-52.99
2022/11/29 01:39:16+0000,-34.54,-44.38,-33.79,-39.49,-49.89,-52.56
2022/11/29 01:40:08+0000,-34.56,-45.14,-33.90,-39.53,-49.72,-52.80
2022/11/29 01:41:07+0000,-34.23,-44.90,-33.93,-40.48,-49.94,-52.44
2022/11/29 01:41:59+0000,-34.28,-45.17,-32.82,-40.25,-49.81,-52.72
2022/11/29 01:42:51+0000,-34.17,-42.83,-34.00,-39.84,-49.96,-52.33
2022/11/29 01:43:43+0000,-34.35,-43.88,-33.05,-40.60,-49.13,-53.07
2022/11/29 01:44:35+0000,-34.15,-41.39,-32.69,-39.75,-49.41,-52.78
2022/11/29 01:45:27+0000,-34.27,-42.99,-34.04,-40.21,-49.68,-53.25
2022/11/29 01:46:19+0000,-34.13,-44.50,-33.47,-40.52,-49.92,-53.23
2022/11/29 01:47:11+0000,-34.00,-46.34,-33.24,-39.75,-49.85,-53.69
2022/11/29 01:48:03+0000,-34.32,-42.31,-33.14,-41.22,-49.79,-53.34
2022/11/29 01:48:55+0000,-34.29,-42.82,-33.39,-41.90,-50.43,-53.61
2022/11/29 01:49:48+0000,-35.06,-44.52,-33.41,-39.36,-50.68,-53.20
2022/11/29 01:50:40+0000,-34.18,-45.15,-33.76,-40.13,-49.61,-53.09
2022/11/29 01:51:38+0000,-34.90,-44.98,-33.92,-39.75,-50.52,-52.82
2022/11/29 01:52:30+0000,-34.98,-44.42,-33.83,-40.56,-50.90,-53.19
2022/11/29 01:53:22+0000,-35.01,-45.39,-34.20,-40.95,-50.77,-53.09
2022/11/29 01:54:14+0000,-35.33,-42.99,-34.06,-40.53,-50.37,-53.46
2022/11/29 01:55:06+0000,-35.34,-45.90,-34.11,-39.85,-50.98,-53.61
2022/11/29 01:55:58+0000,-35.24,-45.00,-34.72,-40.56,-51.21,-53.34
2022/11/29 01:56:50+0000,-34.49,-44.50,-34.59,-40.55,-50.92,-52.58
2022/11/29 01:57:43+0000,-33.85,-44.98,-34.32,-40.19,-50.81,-53.14
2022/11/29 01:58:35+0000,-35.10,-42.32,-33.70,-40.74,-50.71,-53.35
2022/11/29 01:59:27+0000,-33.26,-42.33,-34.58,-40.21,-50.62,-53.73
2022/11/29 02:00:19+0000,-33.78,-44.60,-34.59,-40.29,-51.15,-54.15
2022/11/29 02:01:18+0000,-34.82,-45.45,-34.41,-41.68,-50.24,-54.42
2022/11/29 02:02:10+0000,-34.20,-44.79,-33.53,-41.29,-50.18,-53.70
2022/11/29 02:03:02+0000,-34.24,-43.00,-33.87,-40.98,-50.54,-53.01
2022/11/29 02:03:54+0000,-34.86,-42.95,-33.82,-40.66,-50.64,-53.13
2022/11/29 02:04:46+0000,-35.04,-45.22,-33.86,-39.61,-50.92,-53.55
2022/11/29 02:05:38+0000,-33.33,-44.92,-33.87,-40.25,-50.72,-53.19
2022/11/29 02:06:30+0000,-35.35,-42.49,-33.26,-41.13,-49.93,-54.29
2022/11/29 02:07:22+0000,-35.12,-43.42,-33.29,-40.62,-49.84,-53.33
2022/11/29 02:08:14+0000,-34.62,-44.45,-33.97,-40.09,-50.41,-53.32
2022/11/29 02:09:06+0000,-34.08,-45.04,-34.37,-40.22,-50.46,-53.63
2022/11/29 02:09:59+0000,-34.89,-43.74,-33.83,-39.91,-50.75,-53.87
2022/11/29 02:10:51+0000,-34.52,-45.63,-33.56,-40.52,-50.24,-53.66
2022/11/29 02:11:49+0000,-34.63,-44.89,-34.00,-40.28,-50.27,-53.73
2022/11/29 02:12:42+0000,-34.00,-43.04,-33.60,-40.23,-51.71,-53.96
2022/11/29 02:13:34+0000,-34.37,-43.82,-34.68,-39.93,-51.12,-53.70
2022/11/29 02:14:26+0000,-34.16,-43.41,-34.14,-40.75,-50.91,-54.04
2022/11/29 02:15:18+0000,-34.50,-43.02,-34.01,-39.44,-50.74,-53.64
2022/11/29 02:16:10+0000,-34.11,-42.31,-34.36,-39.95,-50.19,-53.64
2022/11/29 02:17:02+0000,-34.19,-42.73,-33.89,-39.99,-50.86,-53.75
2022/11/29 02:17:54+0000,-33.27,-43.53,-33.99,-39.79,-50.06,-53.44
2022/11/29 02:18:46+0000,-34.27,-42.47,-33.86,-40.27,-50.32,-53.54
2022/11/29 02:19:38+0000,-34.28,-44.08,-34.18,-39.51,-50.07,-53.68
2022/11/29 02:20:30+0000,-35.79,-43.80,-33.91,-40.55,-50.64,-54.12
2022/11/29 02:21:30+0000,-35.70,-44.31,-33.76,-39.68,-50.33,-53.66
2022/11/29 02:22:22+0000,-34.65,-44.54,-33.98,-40.00,-50.37,-53.70
2022/11/29 02:23:14+0000,-34.83,-42.85,-33.38,-39.82,-51.22,-52.87
2022/11/29 02:24:06+0000,-35.01,-44.55,-34.59,-39.89,-51.56,-53.65
2022/11/29 02:24:58+0000,-35.56,-44.39,-33.84,-39.58,-50.96,-53.77
2022/11/29 02:25:50+0000,-35.15,-42.48,-33.88,-40.24,-49.94,-53.81
2022/11/29 02:26:42+0000,-34.50,-42.47,-33.36,-40.16,-50.50,-53.15
2022/11/29 02:27:34+0000,-34.75,-43.79,-33.33,-40.57,-51.30,-53.40
2022/11/29 02:28:26+0000,-34.27,-44.55,-33.63,-40.48,-50.40,-54.26
2022/11/29 02:29:18+0000,-34.35,-42.17,-33.79,-39.37,-50.93,-53.60
2022/11/29 02:30:10+0000,-32.24,-42.47,-33.63,-39.43,-50.98,-53.45
2022/11/29 02:31:10+0000,-34.77,-44.38,-33.95,-39.64,-51.32,-52.86
2022/11/29 02:32:02+0000,-35.06,-44.50,-34.20,-39.75,-51.12,-53.67
2022/11/29 02:32:54+0000,-35.46,-43.95,-33.58,-40.03,-50.93,-53.13
2022/11/29 02:33:46+0000,-34.65,-42.53,-33.90,-39.53,-51.11,-53.59
2022/11/29 02:34:38+0000,-34.30,-42.39,-33.89,-40.27,-50.88,-53.46
2022/11/29 02:35:30+0000,-34.59,-44.20,-33.16,-39.81,-51.34,-53.92
2022/11/29 02:36:22+0000,-34.42,-44.30,-33.73,-40.43,-50.97,-53.38
2022/11/29 02:37:14+0000,-34.34,-44.29,-33.85,-40.05,-51.11,-53.02
2022/11/29 02:38:06+0000,-34.07,-45.78,-33.74,-40.45,-50.34,-53.54
2022/11/29 02:38:59+0000,-34.95,-44.01,-34.04,-41.48,-50.81,-53.56
2022/11/29 02:39:51+0000,-34.67,-44.43,-33.91,-40.08,-50.48,-52.98
2022/11/29 02:40:43+0000,-34.93,-42.31,-33.86,-40.42,-50.89,-53.41
2022/11/29 02:41:46+0000,-34.73,-42.89,-33.52,-40.30,-50.30,-53.51
2022/11/29 02:42:38+0000,-34.50,-43.63,-33.28,-39.86,-50.52,-52.76
2022/11/29 02:43:30+0000,-35.27,-43.54,-33.64,-40.02,-51.19,-52.46
2022/11/29 02:44:22+0000,-33.78,-44.03,-33.74,-39.94,-51.15,-53.40
2022/11/29 02:45:14+0000,-34.40,-43.07,-34.17,-40.18,-51.13,-53.45
2022/11/29 02:46:06+0000,-35.24,-43.60,-33.66,-40.02,-50.93,-53.31
2022/11/29 02:46:58+0000,-34.91,-44.18,-33.68,-40.27,-50.98,-53.09
2022/11/29 02:47:50+0000,-34.17,-42.70,-33.46,-40.07,-50.84,-52.80
2022/11/29 02:48:42+0000,-34.53,-42.11,-33.61,-40.93,-51.00,-52.54
2022/11/29 02:49:34+0000,-34.54,-44.29,-34.16,-40.15,-51.59,-53.32
2022/11/29 02:50:26+0000,-34.15,-42.45,-34.05,-40.91,-50.20,-52.22
2022/11/29 02:51:25+0000,-34.64,-43.01,-33.35,-39.94,-51.34,-52.44
2022/11/29 02:52:17+0000,-34.22,-44.58,-34.22,-41.44,-49.61,-52.73
2022/11/29 02:53:09+0000,-35.10,-45.27,-33.50,-40.58,-48.29,-51.59
2022/11/29 02:54:02+0000,-34.45,-42.60,-34.24,-39.59,-47.87,-51.94
2022/11/29 02:54:54+0000,-34.33,-44.58,-34.64,-40.53,-49.66,-52.62
2022/11/29 02:55:46+0000,-34.47,-43.64,-34.59,-39.97,-49.30,-52.41
2022/11/29 02:56:38+0000,-34.93,-44.76,-34.00,-40.54,-49.41,-51.61
2022/11/29 02:57:30+0000,-34.75,-41.73,-33.80,-39.61,-47.21,-51.80
2022/11/29 02:58:22+0000,-34.74,-44.46,-34.49,-40.27,-49.61,-52.29
2022/11/29 02:59:14+0000,-32.78,-44.09,-33.95,-40.25,-49.23,-51.78
2022/11/29 03:00:06+0000,-32.87,-45.03,-33.70,-40.04,-49.31,-51.57
2022/11/29 03:01:06+0000,-33.49,-44.34,-33.62,-40.17,-49.33,-51.72
2022/11/29 03:01:58+0000,-34.45,-43.51,-33.67,-40.42,-49.29,-51.63
2022/11/29 03:02:50+0000,-34.92,-44.89,-34.38,-40.52,-49.18,-52.01
2022/11/29 03:03:42+0000,-33.73,-41.41,-34.20,-39.46,-48.89,-51.61
2022/11/29 03:04:34+0000,-33.71,-43.34,-34.04,-40.13,-49.02,-51.51
2022/11/29 03:05:26+0000,-34.81,-42.55,-34.06,-39.24,-49.33,-51.61
2022/11/29 03:06:18+0000,-34.14,-40.42,-33.71,-40.38,-49.42,-51.67
2022/11/29 03:07:10+0000,-34.29,-41.83,-33.36,-40.73,-49.43,-51.71
2022/11/29 03:08:02+0000,-34.02,-44.36,-33.46,-40.75,-49.12,-51.83
2022/11/29 03:08:54+0000,-33.80,-44.29,-34.06,-39.80,-49.06,-51.44
2022/11/29 03:09:47+0000,-34.34,-44.38,-33.63,-39.56,-50.05,-51.06
2022/11/29 03:10:39+0000,-33.00,-43.32,-33.86,-39.99,-49.72,-52.56
2022/11/29 03:11:38+0000,-32.93,-43.28,-33.78,-39.59,-49.44,-52.70
2022/11/29 03:12:30+0000,-35.13,-43.83,-33.36,-39.88,-49.13,-52.79
2022/11/29 03:13:22+0000,-34.42,-44.10,-33.38,-39.78,-49.83,-53.06
2022/11/29 03:14:14+0000,-34.17,-43.50,-34.19,-40.27,-50.20,-53.26
2022/11/29 03:15:06+0000,-33.43,-43.85,-33.47,-41.12,-49.81,-52.71
2022/11/29 03:15:58+0000,-34.69,-44.48,-33.86,-39.70,-49.68,-52.51
2022/11/29 03:16:50+0000,-34.51,-44.06,-33.36,-39.66,-49.65,-52.52
2022/11/29 03:17:42+0000,-33.83,-43.42,-34.17,-40.69,-48.49,-52.74
2022/11/29 03:18:34+0000,-34.18,-44.34,-34.16,-40.37,-49.61,-51.53
2022/11/29 03:19:26+0000,-33.94,-44.23,-33.59,-40.20,-49.55,-52.06
2022/11/29 03:20:18+0000,-34.59,-44.05,-34.12,-40.38,-49.70,-52.31
2022/11/29 03:21:17+0000,-33.60,-44.03,-33.77,-40.78,-49.41,-52.66
2022/11/29 03:22:09+0000,-33.95,-43.14,-33.33,-40.14,-49.19,-52.58
2022/11/29 03:23:01+0000,-34.32,-44.60,-34.04,-40.40,-49.77,-53.01
2022/11/29 03:23:53+0000,-34.68,-44.21,-33.56,-39.49,-49.92,-53.04
2022/11/29 03:24:45+0000,-34.47,-44.66,-33.63,-39.88,-49.73,-52.90
2022/11/29 03:25:37+0000,-32.97,-44.98,-33.45,-39.77,-49.48,-52.74
2022/11/29 03:26:29+0000,-35.15,-44.34,-33.41,-40.10,-50.05,-53.08
2022/11/29 03:27:21+0000,-34.09,-44.37,-33.70,-40.32,-49.91,-52.66
2022/11/29 03:28:13+0000,-33.84,-44.17,-33.90,-40.62,-50.00,-52.21
2022/11/29 03:29:05+0000,-33.60,-44.41,-33.78,-40.26,-49.80,-52.70
2022/11/29 03:29:57+0000,-34.41,-44.65,-33.60,-39.39,-49.84,-52.61
2022/11/29 03:30:49+0000,-33.16,-43.48,-33.90,-40.46,-50.12,-53.12
2022/11/29 03:31:49+0000,-33.35,-43.59,-34.15,-40.27,-49.95,-52.59
2022/11/29 03:32:41+0000,-34.51,-43.36,-34.09,-40.04,-49.87,-53.26
2022/11/29 03:33:33+0000,-35.19,-43.41,-33.62,-39.68,-48.91,-52.10
2022/11/29 03:34:25+0000,-33.43,-44.17,-33.81,-39.91,-49.48,-52.61
2022/11/29 03:35:17+0000,-33.85,-42.30,-34.04,-39.27,-49.27,-53.14
2022/11/29 03:36:09+0000,-33.27,-43.63,-33.54,-39.55,-49.06,-53.83
2022/11/29 03:37:01+0000,-34.69,-43.64,-33.45,-39.25,-49.07,-53.14
2022/11/29 03:37:53+0000,-34.11,-44.49,-33.43,-40.01,-49.40,-53.04
2022/11/29 03:38:45+0000,-34.55,-44.17,-33.52,-40.13,-49.47,-52.44
2022/11/29 03:39:37+0000,-34.27,-44.20,-34.05,-40.52,-49.98,-53.07
2022/11/29 03:40:29+0000,-33.13,-43.86,-33.83,-40.43,-48.98,-52.88
2022/11/29 03:41:28+0000,-34.27,-43.80,-33.51,-40.14,-49.92,-52.75
2022/11/29 03:42:20+0000,-34.06,-44.92,-33.90,-40.02,-49.86,-52.77
2022/11/29 03:43:12+0000,-33.55,-42.00,-34.25,-38.99,-50.22,-52.82
2022/11/29 03:44:04+0000,-33.38,-43.70,-33.23,-40.08,-50.52,-52.62
2022/11/29 03:44:56+0000,-34.31,-43.90,-34.09,-39.98,-50.09,-52.21
2022/11/29 03:45:48+0000,-33.39,-42.15,-33.79,-39.81,-49.67,-52.33
2022/11/29 03:46:40+0000,-33.31,-42.48,-33.76,-39.91,-49.51,-52.31
2022/11/29 03:47:32+0000,-34.00,-43.88,-33.64,-39.85,-49.89,-52.27
2022/11/29 03:48:24+0000,-34.54,-44.67,-33.77,-39.37,-49.85,-52.38
2022/11/29 03:49:16+0000,-33.91,-42.10,-34.07,-40.04,-49.96,-53.42
2022/11/29 03:50:09+0000,-34.00,-42.44,-34.02,-39.82,-49.75,-52.57
2022/11/29 03:51:08+0000,-34.14,-42.32,-33.15,-40.45,-49.80,-52.72
2022/11/29 03:52:00+0000,-34.06,-44.62,-34.05,-39.27,-49.88,-53.13
2022/11/29 03:52:52+0000,-33.63,-44.48,-33.99,-39.13,-50.03,-53.04
2022/11/29 03:53:44+0000,-34.26,-43.97,-33.57,-39.78,-50.50,-53.54
2022/11/29 03:54:36+0000,-33.80,-43.95,-33.74,-39.17,-50.13,-53.02
2022/11/29 03:55:28+0000,-34.06,-44.27,-33.88,-38.81,-48.97,-52.89
2022/11/29 03:56:20+0000,-34.18,-43.93,-33.99,-39.14,-49.60,-52.46
2022/11/29 03:57:12+0000,-34.07,-43.66,-33.41,-36.24,-49.79,-51.49
2022/11/29 03:58:04+0000,-34.44,-43.21,-33.31,-38.14,-49.52,-52.27
2022/11/29 03:58:56+0000,-31.68,-43.97,-33.54,-38.26,-49.51,-53.21
2022/11/29 03:59:49+0000,-31.90,-43.59,-33.07,-37.76,-49.18,-53.23
2022/11/29 04:00:41+0000,-34.10,-44.24,-33.38,-38.85,-49.69,-52.31
2022/11/29 04:01:41+0000,-34.07,-44.17,-33.75,-39.05,-49.47,-52.28
2022/11/29 04:02:33+0000,-34.65,-44.02,-34.06,-38.75,-49.15,-53.13
2022/11/29 04:03:25+0000,-31.77,-44.66,-33.64,-39.22,-49.18,-52.90
2022/11/29 04:04:17+0000,-34.47,-44.32,-34.06,-39.14,-49.73,-52.63
2022/11/29 04:05:09+0000,-33.46,-43.58,-32.89,-38.92,-49.67,-52.83
2022/11/29 04:06:01+0000,-33.78,-44.24,-33.30,-38.81,-49.33,-53.44
2022/11/29 04:06:53+0000,-34.92,-44.20,-33.51,-39.23,-49.36,-53.10
2022/11/29 04:07:45+0000,-34.06,-43.76,-33.66,-39.36,-48.61,-52.55
2022/11/29 04:08:37+0000,-34.43,-43.76,-33.71,-38.43,-48.85,-52.15
2022/11/29 04:09:29+0000,-34.47,-43.95,-34.25,-38.84,-49.30,-53.56
2022/11/29 04:10:21+0000,-31.68,-45.10,-33.95,-38.59,-49.03,-53.20
2022/11/29 04:11:20+0000,-31.76,-44.25,-33.65,-38.36,-49.04,-52.74
2022/11/29 04:12:12+0000,-33.55,-43.92,-33.91,-38.42,-48.91,-52.74
2022/11/29 04:13:04+0000,-33.99,-44.93,-33.45,-38.56,-49.54,-53.21
2022/11/29 04:13:56+0000,-30.73,-44.34,-33.60,-38.50,-49.73,-53.32
2022/11/29 04:14:48+0000,-29.60,-44.55,-33.10,-38.97,-49.52,-52.86
2022/11/29 04:15:41+0000,-34.21,-44.61,-33.18,-39.46,-49.19,-53.70
2022/11/29 04:16:33+0000,-33.83,-43.91,-33.59,-39.79,-49.22,-53.10
2022/11/29 04:17:25+0000,-30.58,-44.03,-33.40,-39.07,-48.82,-52.74
2022/11/29 04:18:17+0000,-31.53,-43.59,-33.60,-38.79,-49.16,-53.00
2022/11/29 04:19:09+0000,-34.17,-43.63,-33.74,-39.21,-49.89,-53.17
2022/11/29 04:20:01+0000,-33.57,-43.41,-33.67,-38.94,-49.23,-52.67
2022/11/29 04:20:58+0000,-34.22,-44.31,-33.63,-38.66,-49.15,-53.11
2022/11/29 04:21:50+0000,-31.42,-43.89,-33.66,-38.42,-49.81,-52.91
2022/11/29 04:22:42+0000,-34.20,-44.36,-34.05,-39.73,-49.10,-52.73
2022/11/29 04:23:35+0000,-33.40,-43.81,-33.32,-39.52,-49.12,-53.68
2022/11/29 04:24:27+0000,-31.98,-44.34,-33.52,-38.92,-49.30,-53.15
2022/11/29 04:25:19+0000,-34.52,-44.32,-33.97,-38.12,-49.87,-52.38
2022/11/29 04:26:11+0000,-33.27,-43.87,-33.71,-38.36,-49.77,-53.17
2022/11/29 04:27:03+0000,-34.08,-43.64,-33.95,-37.79,-49.54,-53.11
2022/11/29 04:27:55+0000,-33.99,-43.74,-33.86,-37.60,-49.50,-52.96
2022/11/29 04:28:47+0000,-33.68,-44.32,-33.39,-38.26,-49.24,-52.83
2022/11/29 04:29:39+0000,-32.19,-44.09,-33.95,-38.69,-49.56,-53.33
2022/11/29 04:30:31+0000,-33.63,-44.05,-33.96,-38.19,-49.96,-53.23
2022/11/29 04:31:30+0000,-34.57,-43.83,-34.20,-39.07,-49.67,-52.09
2022/11/29 04:32:22+0000,-33.85,-44.25,-33.61,-38.45,-48.89,-52.51
2022/11/29 04:33:14+0000,-33.84,-44.36,-33.92,-38.84,-48.27,-52.36
2022/11/29 04:34:06+0000,-33.51,-45.05,-33.77,-39.24,-49.52,-52.30
2022/11/29 04:34:58+0000,-33.09,-44.67,-33.90,-39.25,-48.90,-52.86
2022/11/29 04:35:50+0000,-33.96,-44.01,-33.70,-39.16,-49.44,-53.07
2022/11/29 04:36:42+0000,-33.42,-43.90,-33.61,-39.21,-48.85,-52.04
2022/11/29 04:37:34+0000,-34.09,-43.88,-33.84,-39.67,-49.23,-52.52
2022/11/29 04:38:26+0000,-32.56,-44.15,-32.99,-38.83,-48.56,-53.00
2022/11/29 04:39:18+0000,-33.45,-43.95,-33.25,-39.62,-48.54,-52.50
2022/11/29 04:40:10+0000,-33.52,-44.55,-34.03,-38.91,-49.09,-52.38
2022/11/29 04:41:08+0000,-33.57,-45.11,-33.13,-39.04,-49.17,-52.90
2022/11/29 04:42:00+0000,-34.47,-44.25,-33.80,-39.17,-49.14,-52.39
2022/11/29 04:42:52+0000,-33.43,-44.32,-33.65,-39.26,-49.30,-53.08
2022/11/29 04:43:44+0000,-33.83,-44.49,-34.02,-39.17,-49.18,-52.71
2022/11/29 04:44:36+0000,-33.82,-44.35,-33.53,-39.37,-49.08,-52.47
2022/11/29 04:45:28+0000,-34.05,-44.15,-33.18,-39.46,-49.51,-52.58
2022/11/29 04:46:20+0000,-33.56,-43.95,-34.43,-39.24,-49.42,-52.49